Location: Sandbach
(53.1410°N, 2.3660°W)
Time: 06:13:31
(UTC+00:00)

BlueWalker 3 - Visible Passes

Search period start: 09 December 2022 00:00
Search period end: 19 December 2022 00:00
Orbit: 501 x 518 km, 53.2° (Epoch: 08 December)

Date Brightness Start Highest point End Pass type
(mag) Time Alt. Az. Time Alt. Az. Time Alt. Az.
09 Dec 2.4 17:06:00 10° W 17:09:53 61° SSW 17:13:43 10° ESE visible
09 Dec 4.3 18:45:08 10° W 18:48:01 20° SW 18:49:37 16° S visible
10 Dec 2.6 16:47:34 10° W 16:51:27 59° SSW 16:55:17 10° ESE visible
10 Dec 4.5 18:26:46 10° W 18:29:34 19° SW 18:32:21 10° S visible
11 Dec 2.7 16:29:09 10° W 16:33:01 57° SSW 16:36:51 10° ESE visible
11 Dec 4.7 18:08:24 10° W 18:11:07 18° SW 18:13:48 10° S visible
12 Dec 4.8 17:50:02 10° W 17:52:39 17° SW 17:55:15 10° S visible
13 Dec 4.9 17:31:40 10° W 17:34:11 17° SW 17:36:41 10° S visible
14 Dec 5.0 17:13:18 10° W 17:15:42 16° SW 17:18:06 10° S visible
15 Dec 5.2 16:54:57 10° W 16:57:14 15° SW 16:59:30 10° S visible
16 Dec 5.3 16:36:36 10° WSW 16:38:45 14° SW 16:40:53 10° S visible
